Orbital Elements at Epoch 2459200.5 (2020-Dec-17.0) TDB
Reference: JPL 20 (heliocentric ecliptic J2000)
Element | Value | Uncertainty (1-sigma) | Units |
e | .2476030556243969 | 4.2917e-08 | |
a | 3.13446839349325 | 2.8028e-08 | au |
q | 2.358364441506227 | 1.4195e-07 | au |
i | 22.57678300474183 | 6.9326e-06 | deg |
node | 217.5796923367313 | 1.1738e-05 | deg |
peri | 269.8336854788951 | 1.9082e-05 | deg |
M | 285.8403462556017 | 1.7012e-05 | deg |
tp | 2459618.050936391229 (2022-Feb-07.55093639) | 9.9326e-05 | TDB |
period | 2026.955757087753 5.55 | 2.7187e-05 7.443e-08 | d yr |
n | .1776062446065588 | 2.3822e-09 | deg/d |
Q | 3.910572345480273 | 3.4968e-08 | au |
|
| | Orbit Determination Parameters
Additional Information
|